TimePST,TemperatureF,Dew PointF,Humidity,Sea Level PressureIn,VisibilityMPH,Wind Direction,Wind SpeedMPH,Gust SpeedMPH,PrecipitationIn,Events,Conditions,WindDirDegrees,DateUTC
12:15 AM,50.0,44.6,82,29.97,10.0,SSE,11.5,18.4,N/A,,Overcast,150,2013-11-18 08:15:00
12:35 AM,50.0,44.6,82,29.97,10.0,SSE,11.5,16.1,N/A,,Overcast,160,2013-11-18 08:35:00
12:55 AM,50.0,44.6,82,29.96,10.0,SSE,10.4,-,N/A,,Overcast,150,2013-11-18 08:55:00
1:15 AM,50.0,44.6,82,29.96,10.0,SSE,11.5,17.3,N/A,,Overcast,150,2013-11-18 09:15:00
1:35 AM,50.0,44.6,82,29.96,10.0,SSE,13.8,19.6,N/A,,Overcast,150,2013-11-18 09:35:00
1:55 AM,51.8,44.6,76,29.96,10.0,SSE,11.5,18.4,N/A,,Overcast,150,2013-11-18 09:55:00
2:15 AM,51.8,44.6,76,29.96,10.0,SSE,11.5,18.4,N/A,,Overcast,150,2013-11-18 10:15:00
2:35 AM,50.0,44.6,82,29.96,10.0,SE,11.5,18.4,N/A,,Overcast,140,2013-11-18 10:35:00
2:55 AM,51.8,42.8,71,29.95,10.0,SSE,11.5,-,N/A,,Overcast,150,2013-11-18 10:55:00
3:15 AM,51.8,42.8,71,29.95,10.0,SSE,12.7,19.6,N/A,,Overcast,150,2013-11-18 11:15:00
3:35 AM,51.8,42.8,71,29.94,10.0,North,-9999.0,-,N/A,,Overcast,0,2013-11-18 11:35:00
3:55 AM,51.8,42.8,71,29.94,10.0,North,-9999.0,-,N/A,,Overcast,0,2013-11-18 11:55:00
4:15 AM,51.8,42.8,71,29.94,10.0,SSE,12.7,18.4,N/A,,Overcast,150,2013-11-18 12:15:00
4:35 AM,51.8,42.8,71,29.94,10.0,North,-9999.0,-,N/A,,Overcast,0,2013-11-18 12:35:00
4:55 AM,51.8,42.8,71,29.93,10.0,SSE,10.4,20.7,N/A,,Overcast,150,2013-11-18 12:55:00
5:15 AM,51.8,42.8,71,29.93,10.0,SSE,11.5,-,N/A,,Overcast,150,2013-11-18 13:15:00
5:35 AM,51.8,42.8,71,29.92,10.0,North,-9999.0,-,N/A,,Overcast,0,2013-11-18 13:35:00
5:55 AM,51.8,42.8,71,29.92,10.0,North,-9999.0,-,N/A,,Overcast,0,2013-11-18 13:55:00
6:15 AM,51.8,42.8,71,29.92,10.0,North,-9999.0,-,N/A,,Overcast,0,2013-11-18 14:15:00
6:35 AM,51.8,42.8,71,29.92,10.0,North,-9999.0,-,N/A,,Overcast,0,2013-11-18 14:35:00
6:55 AM,51.8,42.8,71,29.92,10.0,SSE,12.7,19.6,N/A,,Overcast,160,2013-11-18 14:55:00
7:15 AM,51.8,42.8,71,29.92,10.0,SSE,15.0,25.3,N/A,,Overcast,150,2013-11-18 15:15:00
7:35 AM,51.8,42.8,71,29.92,10.0,SE,16.1,21.9,N/A,,Overcast,140,2013-11-18 15:35:00
7:55 AM,51.8,42.8,71,29.92,10.0,SSE,12.7,23.0,N/A,,Overcast,150,2013-11-18 15:55:00
8:15 AM,51.8,42.8,71,29.91,10.0,SSE,16.1,20.7,N/A,,Overcast,150,2013-11-18 16:15:00
8:35 AM,51.8,42.8,71,29.91,10.0,SSE,17.3,25.3,N/A,,Overcast,150,2013-11-18 16:35:00
8:55 AM,51.8,42.8,71,29.91,10.0,SE,11.5,21.9,N/A,,Overcast,140,2013-11-18 16:55:00
9:15 AM,51.8,42.8,71,29.91,10.0,SE,12.7,18.4,N/A,,Overcast,140,2013-11-18 17:15:00
9:35 AM,51.8,42.8,71,29.91,10.0,SE,10.4,19.6,N/A,,Overcast,140,2013-11-18 17:35:00
9:55 AM,51.8,42.8,71,29.91,10.0,SE,12.7,19.6,N/A,,Overcast,140,2013-11-18 17:55:00
10:15 AM,51.8,42.8,71,29.90,10.0,SE,11.5,24.2,N/A,,Overcast,140,2013-11-18 18:15:00
10:35 AM,51.8,42.8,71,29.90,10.0,SSE,12.7,18.4,N/A,,Overcast,150,2013-11-18 18:35:00
10:55 AM,51.8,42.8,71,29.90,10.0,SSE,11.5,21.9,N/A,,Overcast,150,2013-11-18 18:55:00
11:15 AM,51.8,44.6,76,29.89,10.0,SE,10.4,17.3,0.01,,Overcast,140,2013-11-18 19:15:00
11:35 AM,51.8,44.6,76,29.89,10.0,SSE,15.0,21.9,0.01,,Overcast,150,2013-11-18 19:35:00
11:55 AM,50.0,44.6,82,29.88,10.0,SSE,11.5,19.6,0.02,,Overcast,150,2013-11-18 19:55:00
12:15 PM,50.0,44.6,82,29.87,10.0,SSE,15.0,21.9,0.02,,Overcast,150,2013-11-18 20:15:00
12:35 PM,50.0,44.6,82,29.86,10.0,SE,12.7,18.4,0.03,,Overcast,140,2013-11-18 20:35:00
12:55 PM,51.8,44.6,76,29.85,10.0,SSE,13.8,19.6,0.03,,Overcast,150,2013-11-18 20:55:00
1:15 PM,51.8,44.6,76,29.84,10.0,SSE,11.5,20.7,N/A,,Overcast,150,2013-11-18 21:15:00
1:35 PM,51.8,44.6,76,29.82,10.0,SE,10.4,19.6,N/A,,Overcast,140,2013-11-18 21:35:00
1:55 PM,51.8,44.6,76,29.81,10.0,SSE,11.5,19.6,N/A,,Overcast,150,2013-11-18 21:55:00
2:15 PM,51.8,44.6,76,29.81,10.0,SSE,12.7,21.9,N/A,,Overcast,150,2013-11-18 22:15:00
2:35 PM,51.8,44.6,76,29.80,10.0,SE,12.7,24.2,N/A,,Overcast,140,2013-11-18 22:35:00
2:55 PM,51.8,44.6,76,29.79,10.0,SSE,15.0,23.0,0.01,,Overcast,150,2013-11-18 22:55:00
3:15 PM,51.8,44.6,76,29.79,10.0,SSE,16.1,23.0,N/A,,Overcast,150,2013-11-18 23:15:00
3:35 PM,51.8,44.6,76,29.77,10.0,SE,17.3,23.0,0.01,,Overcast,140,2013-11-18 23:35:00
3:55 PM,51.8,44.6,76,29.77,10.0,SSE,18.4,25.3,0.01,,Overcast,150,2013-11-18 23:55:00
4:15 PM,51.8,44.6,76,29.76,10.0,SSE,15.0,26.5,N/A,,Overcast,150,2013-11-19 00:15:00
4:35 PM,51.8,44.6,76,29.75,10.0,SE,18.4,26.5,N/A,,Overcast,140,2013-11-19 00:35:00
4:55 PM,51.8,44.6,76,29.74,10.0,SE,16.1,31.1,N/A,,Overcast,140,2013-11-19 00:55:00
5:15 PM,51.8,44.6,76,29.73,10.0,SE,15.0,27.6,N/A,,Overcast,140,2013-11-19 01:15:00
5:35 PM,51.8,44.6,76,29.73,10.0,SSE,19.6,31.1,0.02,,Overcast,150,2013-11-19 01:35:00
5:55 PM,51.8,44.6,76,29.72,9.0,SE,19.6,33.4,0.04,,Overcast,140,2013-11-19 01:55:00
6:15 PM,51.8,46.4,82,29.71,10.0,SSE,17.3,28.8,0.01,,Overcast,150,2013-11-19 02:15:00
6:35 PM,51.8,46.4,82,29.70,9.0,SSE,19.6,27.6,0.07,,Overcast,150,2013-11-19 02:35:00
6:55 PM,51.8,46.4,82,29.69,10.0,SSE,20.7,28.8,0.09,,Overcast,150,2013-11-19 02:55:00
7:15 PM,51.8,46.4,82,29.69,10.0,SSE,19.6,32.2,N/A,,Overcast,150,2013-11-19 03:15:00
7:35 PM,51.8,46.4,82,29.69,9.0,SSE,20.7,33.4,0.01,,Overcast,150,2013-11-19 03:35:00
7:55 PM,51.8,46.4,82,29.69,10.0,SSE,17.3,29.9,0.03,,Overcast,150,2013-11-19 03:55:00
8:15 PM,51.8,46.4,82,29.69,10.0,SE,19.6,34.5,N/A,,Overcast,140,2013-11-19 04:15:00
8:35 PM,51.8,46.4,82,29.70,10.0,SE,17.3,26.5,N/A,,Overcast,140,2013-11-19 04:35:00
8:55 PM,51.8,46.4,82,29.70,10.0,SSE,17.3,28.8,N/A,,Overcast,150,2013-11-19 04:55:00
9:15 PM,51.8,46.4,82,29.70,10.0,SSE,16.1,25.3,N/A,,Overcast,150,2013-11-19 05:15:00
9:35 PM,51.8,46.4,82,29.70,10.0,North,-9999.0,-,N/A,,Overcast,0,2013-11-19 05:35:00
9:55 PM,51.8,46.4,82,29.71,10.0,North,-9999.0,-,N/A,,Overcast,0,2013-11-19 05:55:00
10:15 PM,51.8,46.4,82,29.71,10.0,North,-9999.0,-,N/A,,Overcast,0,2013-11-19 06:15:00
10:35 PM,51.8,46.4,82,29.70,10.0,North,-9999.0,-,N/A,,Overcast,0,2013-11-19 06:35:00
10:55 PM,51.8,46.4,82,29.70,10.0,North,-9999.0,-,N/A,,Overcast,0,2013-11-19 06:55:00
11:15 PM,53.6,46.4,77,29.70,10.0,North,-9999.0,-,N/A,,Overcast,0,2013-11-19 07:15:00
11:35 PM,53.6,46.4,77,29.70,10.0,North,-9999.0,-,N/A,,Overcast,0,2013-11-19 07:35:00
11:55 PM,53.6,46.4,77,29.71,10.0,North,-9999.0,-,N/A,,Overcast,0,2013-11-19 07:55:00